Weather in Damanhur

Egypt     31°02′07″N   30°28′07″E
temp.,
°C
wind,
m/s
gust,
m/s
humid.,
%
clouds,
%
prec.,
mm/h
press.,
hPa
HPBL,
m
4 july, mon
mon423:00+24nnw23810 0.0 100786
02:00+23nnw11860 0.0 100611
05:00+22wnw22890 0.0 100622
08:00+29w22510 0.0 1007640
11:00+36wnw33230 0.0 10062616
14:00+37nw86250 0.0 10042658
17:00+32nnw88390 0.0 10051061
20:00+25nnw47750 0.0 1007384
5 july, tue
tue523:00+24nw23830 0.0 100886
02:00+23nw23860 0.0 100759
05:00+22nw22920 0.0 100722
08:00+28wnw33540 0.0 1008722
11:00+35nw54280 0.0 10072137
14:00+35nnw76290 0.0 10071862
17:00+30nw77400 0.0 1007836
20:00+25nnw49680 0.0 1008356
6 july, wed
wed623:00+23nnw36740 0.0 1008150
02:00+21nnw11830 0.0 100811
05:00+21w11850 0.0 100711
08:00+28wnw34480 0.0 1008732
11:00+35nw65220 0.0 10081577
14:00+36nnw76180 0.0 10071749
17:00+32nnw67280 0.0 1007880
20:00+24nnw36630 0.0 1008114
7 july, thu
thu723:00+23n22750 0.0 100832
02:00+21n00780 0.0 100711
05:00+20w11790 0.0 100811
08:00+28wnw33420 0.0 1008656
11:00+35nw44170 0.0 10071809
14:00+37nw76150 0.0 10062018
17:00+32nw77310 0.0 10071123
20:00+25nw38650 0.0 1008238
8 july, fri
fri823:00+23wnw36740 0.0 1008130
02:00+23wnw23790 0.0 100741
05:00+22wnw22830 0.0 100815
08:00+30nw46460 0.0 1008861
11:00+34nw78280 0.0 10071378
14:00+35nw89270 0.0 10071314
17:00+32nw710340 0.0 1007925
20:00+25nw49710 0.0 1007329